Regional Weather Roundup
Issued by NWS

Home | Current Version | Previous Version | Text Only | Print | Product List | Glossary On
Versions: 1 2 3 4 5 6 7 8 9 10 11 12 13 14 15 16 17 18 19 20 21 22 23 24 25 26 27 28 29 30 31 32 33 34 35 36 37 38 39 40 41 42 43 44 45 46 47 48 49 50
000
ASUS43 KBIS 151410
RWRND

NORTH DAKOTA REGIONAL WEATHER ROUNDUP
NATIONAL WEATHER SERVICE BISMARCK ND
800 AM CST FRI DEC 15 2017

NOTE: "FAIR" INDICATES FEW OR NO CLOUDS BELOW 12,000 FEET WITH NO
SIGNIFICANT WEATHER AND/OR OBSTRUCTIONS TO VISIBILITY.


NDZ001>003-009>011-017-151500-
NORTHWEST NORTH DAKOTA

CITY           SKY/WX    TMP DP  RH WIND       PRES   REMARKS
WILLISTON      MOCLDY    29  24  82 S3        29.69F
MINOT          CLOUDY    31  25  78 S6        29.70F
MINOT AFB      CLOUDY    29  24  82 S6        29.69F
$$

NDZ018>021-031>035-040>046-151500-
SOUTHWEST NORTH DAKOTA

CITY           SKY/WX    TMP DP  RH WIND       PRES   REMARKS
BISMARCK       CLOUDY    29  23  78 CALM      29.78F
DICKINSON      CLOUDY    31  23  72 W10       29.70F
GARRISON         N/A     30  25  81 S6        29.72F
HETTINGER ARPT CLOUDY    28  22  78 W7        29.77F
$$

NDZ004>008-012>016-024-026-027-054-151500-
NORTHEAST NORTH DAKOTA

CITY           SKY/WX    TMP DP  RH WIND       PRES   REMARKS
GRAND FORKS    CLOUDY    17  14  88 SE5       29.86F WCI  10
GRND FRKS AFB  FLURRIES  17  14  89 S6        29.84F WCI   8
DEVILS LAKE    FLURRIES  22  20  92 S8        29.77F WCI  12
$$

NDZ022-023-025-028>030-036>039-047>053-151500-
SOUTHEAST NORTH DAKOTA

CITY           SKY/WX    TMP DP  RH WIND       PRES   REMARKS
FARGO          FLURRIES  19  15  84 E3        29.87F
JAMESTOWN      CLOUDY    23  22  96 S9        29.79F WCI  13
$$





USA.gov is the U.S. government's official web portal to all federal, state and local government web resources and services.